Showing default

EUTE 8 WEST B, 40875

Orbit data source: Space-Track

EUTE 8 WEST B, 40875 is a payload satellite owned by EutelsatSA (FR) in GEO that was launched on Thu, 20 Aug 2015 UTC via an ARIANE 5ECA launch vehicle from the French Guiana (FRGUI). Payloads include a variety of satellites, spacecraft, and rockets equipped with specific instruments for various scientific and technological missions. These include communications satellites like Starlink; space stations such as the ISS; scientific satellites like the Hubble; Earth observation satellites from companies like Planet Labs, Umbra, and HawkEye 360; GPS; miniature CubeSats for education and research; and military/defense satellites.

Not visible in the next 10 days
EUTE 8 WEST B details
Identifier
40875, 2015-039B
Orbit
GEO
Last TLE update13 hours ago
Origin
Flag of FREutelsatSA (FR / EUTE)
ManufacturerThales Alenia
MissionOperational Commercial Communications
Bus & MotorSPACEBUS 4000C4, S400
Mass5,782 kg wet, ~3,000 kg dry
Launch date (UTC)
2015-08-20 (9 years ago)
Launch vehicle
ARIANE 5ECA
Launch site
French Guiana (FRGUI)
Object type
Payload
Rocket body
Debris
Shape & HBRBox + 2 Pan, 37 m
Radar Cross Section31.794 m², Large (>1 m²)

Expand to show TLE details & history

TLE from 13 hours ago
0 EUTE 8 WEST B
1 40875U 15039B   24361.21316906 -.00000037  00000-0  00000-0 0  9997
2 40875   0.0640 354.3961 0004073 279.4351 250.1053  1.00271502 34250
Epoch: 2024-12-26T05:06Z
Definitive object data (Epoch: 2024-12-26T05:06:57.806Z)
Latitude0.01608°
Longitude-8.05196°
Altitude35,792.029 km
Speed3.074 km/s
True Right ascension10h 55m 32s
True Declination0° 00' 58"
Sunlit
Object was in daylight at TLE epoch
Visualization TLE readout
Latitude0.01165°
Longitude-169.44911°
Altitude35,785.754 km
Speed3.075 km/s
Apparent Right ascension00h 35m 52s
Apparent Declination-5° 23' 26"
Sunlit
Object is in daylight
Visualization observer readout
Local Sidereal Time17:41:19
Azimuth85.356° E
Elevation-13.907°
Doppler factor1
Orbital elements
Apogee altitude35,804.919 km
Perigee altitude35,770.571 km
Semi-major axis42,165.882 km
Eccentricity0.0004073
Inclination0.064°
RAAN354.3961°
Arg. of periapsis279.4351°
True anomaly250.06142°
Mean anomaly250.1053°
Eccentric anomaly250.08336°
Mean motion0.25067 °/min
BSTARUnknown
Orbital period1436.15 mins
Loading historical data...
40875 neighbors
Authenticating...
Loading maneuver chart data...
Loading historical data...
Loading historical data...
Loading historical data...
Loading historical data...
Loading historical data...
Loading historical data...
Loading historical data...
Other satellites on launch #39 in the year 2015 (2015-08-20 UTC)

EUTE 8 WEST B Visibility forecast

Observer location: undefined°, undefined

EUTE 8 WEST B is not visible in the next 10 days
Span
Click to sort rows by Start time (UTC) header in descending order
Start Az.
Max El. time (UTC)
Max El. Az.
Max El.
End time (UTC)
End Az.
|